Location: Milton Keynes
(52.0316°N, 0.7531°W)
Time: 05:17:10
(UTC+00:00)

Envisat - Pass Details

Date: 29 January 2019
Orbit: 764 x 766 km, 98.2° (Epoch: 20 February)

Event Time Altitude Azimuth Distance (km) Brightness Sun altitude
Rises 19:08:37 0° 182° (S) 3,222 6.3 -22.0°
Reaches altitude 10° 19:11:00 10° 189° (S) 2,300 5.6 -22.4°
Maximum altitude 19:15:52 45° 262° (W) 1,035 4.1 -23.1°
Drops below altitude 10° 19:20:46 10° 335° (NNW) 2,316 5.8 -23.9°
Sets 19:23:11 0° 342° (NNW) 3,247 6.5 -24.2°
